Weather History for KGLR - May, 2013

Change the Weather History Date:

Thursday, May 9, 2013

  Actual Average Record
Temperature  
Mean Temperature 60 °F -  
Max Temperature 77 °F - - ()
Min Temperature 43 °F - - ()
Degree Days  
Heating Degree Days 5    
Growing Degree Days 10 (Base 50)    
Moisture  
Dew Point 42 °F    
Average Humidity 55    
Maximum Humidity 86    
Minimum Humidity 25    
Precipitation  
Precipitation 0.01 in - - ()
Sea Level Pressure  
Sea Level Pressure 29.97 in    
Wind  
Wind Speed 3 mph (NE)    
Max Wind Speed 14 mph    
Max Gust Speed 21 mph    
Visibility 10 miles    
Events Rain    
T = Trace of Precipitation, MM = Missing Value Source: NWS Daily Summary

Daily Weather History Graph

Daily Weather History Graph

Search for Another Location

Airport or City:

Trip Planner

Search our weather history database for the weather conditions in past years. The results will help you decide how hot, cold, wet, or windy it might be!

Date:

Astronomy

May. 09, 2013 Rise Set
Actual Time 6:16 AM EDT 8:54 PM EDT
Civil Twilight 5:43 AM EDT 9:28 PM EDT
Nautical Twilight 5:01 AM EDT 10:10 PM EDT
Astronomical Twilight 4:13 AM EDT 10:59 PM EDT
Moon 6:02 AM EDT (5/9) 8:48 PM EDT (5/9)
Length of Visible Light 15h 44m
Length of Day
14h 37m
Waning Crescent, 0% of the Moon is Illuminated
May 9
Waning Crescent
May 9
New
May 18
First Quarter
May 25
Full
May 31
Last Quarter

Hourly Weather History & Observations

Time (EDT) Temp. Dew Point Humidity Pressure Visibility Wind Dir Wind Speed Gust Speed Precip Events Conditions
12:53 AM 50.0 °F 42.1 °F 74% 29.99 in 10.0 mi Calm Calm - N/A   Clear
1:53 AM 50.0 °F 42.1 °F 74% 29.99 in 10.0 mi Calm Calm - N/A   Clear
2:53 AM 46.9 °F 41.0 °F 80% 29.97 in 10.0 mi Calm Calm - N/A   Mostly Cloudy
3:53 AM 48.0 °F 41.0 °F 77% 29.96 in 10.0 mi Calm Calm - N/A   Clear
4:53 AM 46.0 °F 39.9 °F 79% 29.96 in 10.0 mi Calm Calm - N/A   Clear
5:53 AM 43.0 °F 39.0 °F 86% 29.96 in 10.0 mi Calm Calm - N/A   Clear
6:53 AM 46.9 °F 39.0 °F 74% 29.98 in 10.0 mi Calm Calm - N/A   Clear
7:53 AM 50.0 °F 43.0 °F 77% 29.98 in 10.0 mi Calm Calm - N/A   Clear
8:53 AM 62.1 °F 44.1 °F 52% 29.98 in 10.0 mi Calm Calm - N/A   Clear
9:53 AM 68.0 °F 41.0 °F 37% 29.96 in 10.0 mi NNE 4.6 mph - N/A   Clear
10:53 AM 70.0 °F 39.0 °F 32% 29.97 in 10.0 mi Calm Calm - N/A   Clear
11:53 AM 73.9 °F 39.9 °F 29% 29.97 in 10.0 mi Variable 4.6 mph - N/A   Clear
12:53 PM 77.0 °F 39.0 °F 25% 29.96 in 10.0 mi Variable 4.6 mph - N/A   Clear
1:53 PM 77.0 °F 39.0 °F 25% 29.95 in 10.0 mi Variable 5.8 mph - N/A   Clear
2:53 PM 75.0 °F 39.9 °F 28% 29.95 in 10.0 mi Variable 4.6 mph - N/A   Mostly Cloudy
3:53 PM 75.0 °F 39.9 °F 28% 29.94 in 10.0 mi Calm Calm - N/A   Overcast
4:53 PM 72.0 °F 44.1 °F 37% 29.94 in 10.0 mi NE 9.2 mph - N/A   Overcast
5:53 PM 70.0 °F 45.0 °F 41% 29.95 in 10.0 mi NE 13.8 mph 18.4 mph N/A   Clear
6:53 PM 66.0 °F 45.0 °F 47% 29.95 in 10.0 mi NE 11.5 mph 17.3 mph N/A   Mostly Cloudy
7:53 PM 62.1 °F 43.0 °F 50% 29.96 in 10.0 mi NE 10.4 mph - N/A   Overcast
8:53 PM 59.0 °F 44.1 °F 58% 29.99 in 10.0 mi North 4.6 mph - 0.00 in Rain Light Rain
9:53 PM 57.0 °F 45.0 °F 64% 30.00 in 10.0 mi NNE 9.2 mph - 0.00 in Rain Light Rain
10:53 PM 54.0 °F 45.0 °F 72% 30.00 in 10.0 mi NE 11.5 mph - 0.00 in Rain Light Rain
11:53 PM 51.1 °F 46.0 °F 83% 29.99 in 10.0 mi NE 12.7 mph 20.7 mph 0.01 in Rain Light Rain